Hourly Weather Innsbruck

Today, 8 August, Saturday

Time Temperature Precipitation Wind Pressure Humidity
00:00 +9°C° 0 mm 1 mps 601 mmHg 92%
01:00 +9°C° 0 mm 1 mps 601 mmHg 90%
02:00 +9°C° 0 mm 1 mps 601 mmHg 91%
03:00 +9°C° 0 mm 1 mps 601 mmHg 91%
04:00 +8°C° 0 mm 1 mps 601 mmHg 92%
05:00 +10°C° 0 mm 1 mps 602 mmHg 87%
06:00 +12°C° 0 mm 1 mps 603 mmHg 82%
07:00 +13°C° 0 mm 0 mps 603 mmHg 78%
08:00 +16°C° 0 mm 1 mps 604 mmHg 68%
09:00 +19°C° 0 mm 1 mps 605 mmHg 58%
10:00 +21°C° 0 mm 1 mps 606 mmHg 49%
11:00 +22°C° 0 mm 1 mps 606 mmHg 45%
12:00 +21°C° 0 mm 2 mps 606 mmHg 42%
13:00 +23°C° 0 mm 2 mps 606 mmHg 38%
14:00 +23°C° 0 mm 2 mps 606 mmHg 40%
15:00 +21°C° 0 mm 2 mps 606 mmHg 42%
16:00 +21°C° 0 mm 2 mps 605 mmHg 44%
17:00 +19°C° 0.1 mm 2 mps 605 mmHg 56%
18:00 +17°C° 0.1 mm 2 mps 604 mmHg 68%
19:00 +15°C° 0.1 mm 1 mps 603 mmHg 81%
20:00 +13°C° 0 mm 1 mps 602 mmHg 85%
21:00 +12°C° 0 mm 1 mps 602 mmHg 89%
22:00 +9°C° 0 mm 0 mps 601 mmHg 93%
23:00 +9°C° 0 mm 0 mps 601 mmHg 93%

Tomorrow, 9 August, Sunday

Time Temperature Precipitation Wind Pressure Humidity
00:00 +9°C° 0 mm 0 mps 601 mmHg 93%
01:00 +9°C° 0 mm 1 mps 601 mmHg 93%
02:00 +9°C° 0 mm 1 mps 600 mmHg 92%
03:00 +9°C° 0 mm 1 mps 600 mmHg 92%
04:00 +9°C° 0 mm 1 mps 600 mmHg 92%
05:00 +9°C° 0 mm 0 mps 601 mmHg 87%
06:00 +11°C° 0 mm 0 mps 601 mmHg 83%
07:00 +13°C° 0 mm 0 mps 602 mmHg 79%
08:00 +15°C° 0 mm 0 mps 603 mmHg 71%
09:00 +19°C° 0 mm 1 mps 604 mmHg 62%
10:00 +21°C° 0 mm 1 mps 604 mmHg 54%
11:00 +21°C° 0 mm 1 mps 604 mmHg 49%
12:00 +21°C° 0 mm 2 mps 605 mmHg 44%
13:00 +23°C° 0 mm 2 mps 605 mmHg 39%
14:00 +21°C° 0.1 mm 2 mps 604 mmHg 41%
15:00 +21°C° 0.1 mm 2 mps 604 mmHg 43%
16:00 +21°C° 0.1 mm 2 mps 604 mmHg 45%
17:00 +19°C° 0.3 mm 2 mps 603 mmHg 57%
18:00 +18°C° 0.3 mm 1 mps 602 mmHg 69%
19:00 +15°C° 0.3 mm 1 mps 601 mmHg 81%
20:00 +13°C° 0.2 mm 1 mps 600 mmHg 85%
21:00 +12°C° 0.2 mm 1 mps 600 mmHg 88%
22:00 +9°C° 0.2 mm 0 mps 600 mmHg 91%
23:00 +10°C° 0 mm 1 mps 599 mmHg 90%

Day after tomorrow, 10 August, Monday

Time Temperature Precipitation Wind Pressure Humidity
00:00 +10°C° 0 mm 1 mps 599 mmHg 89%
01:00 +10°C° 0 mm 1 mps 599 mmHg 89%
02:00 +10°C° 0 mm 1 mps 599 mmHg 88%
03:00 +9°C° 0 mm 1 mps 599 mmHg 88%
04:00 +9°C° 0 mm 1 mps 598 mmHg 88%
05:00 +11°C° 0 mm 1 mps 599 mmHg 85%
06:00 +12°C° 0 mm 1 mps 600 mmHg 81%
07:00 +14°C° 0 mm 1 mps 600 mmHg 78%
08:00 +16°C° 0 mm 1 mps 601 mmHg 69%
09:00 +19°C° 0 mm 1 mps 602 mmHg 60%
10:00 +21°C° 0 mm 1 mps 603 mmHg 51%
11:00 +22°C° 0.1 mm 1 mps 603 mmHg 47%
12:00 +23°C° 0.1 mm 1 mps 603 mmHg 44%
13:00 +23°C° 0.1 mm 2 mps 603 mmHg 40%
14:00 +23°C° 0.3 mm 2 mps 603 mmHg 42%
15:00 +21°C° 0.3 mm 2 mps 603 mmHg 45%
16:00 +21°C° 0.3 mm 2 mps 602 mmHg 48%
17:00 +20°C° 1.1 mm 1 mps 601 mmHg 59%
18:00 +18°C° 1.1 mm 1 mps 601 mmHg 71%
19:00 +14°C° 1.1 mm 0 mps 600 mmHg 83%
20:00 +13°C° 0.5 mm 1 mps 599 mmHg 84%
21:00 +12°C° 0.5 mm 1 mps 599 mmHg 85%
22:00 +11°C° 0.5 mm 1 mps 599 mmHg 86%
23:00 +11°C° 0.1 mm 1 mps 599 mmHg 86%

11 August, Tuesday

Time Temperature Precipitation Wind Pressure Humidity
00:00 +10°C° 0.1 mm 1 mps 599 mmHg 85%
01:00 +10°C° 0.1 mm 1 mps 599 mmHg 85%
02:00 +10°C° 0 mm 1 mps 598 mmHg 85%
03:00 +10°C° 0 mm 1 mps 598 mmHg 85%
04:00 +10°C° 0 mm 1 mps 598 mmHg 85%
05:00 +11°C° 0 mm 1 mps 599 mmHg 82%
06:00 +13°C° 0 mm 1 mps 600 mmHg 79%
07:00 +14°C° 0 mm 1 mps 600 mmHg 75%
08:00 +16°C° 0.1 mm 1 mps 601 mmHg 67%
09:00 +19°C° 0.1 mm 1 mps 602 mmHg 58%
10:00 +22°C° 0.1 mm 1 mps 603 mmHg 49%
11:00 +22°C° 0.2 mm 1 mps 603 mmHg 47%
12:00 +23°C° 0.2 mm 1 mps 603 mmHg 45%
13:00 +23°C° 0.2 mm 1 mps 603 mmHg 43%
14:00 +22°C° 0.7 mm 1 mps 603 mmHg 49%
15:00 +21°C° 0.7 mm 1 mps 603 mmHg 55%
16:00 +21°C° 0.7 mm 1 mps 602 mmHg 61%
17:00 +19°C° 1.8 mm 1 mps 601 mmHg 70%
18:00 +16°C° 1.8 mm 1 mps 601 mmHg 79%
19:00 +13°C° 1.8 mm 0 mps 600 mmHg 87%
20:00 +14°C° 0.8 mm 1 mps 600 mmHg 88%
21:00 +13°C° 0.8 mm 1 mps 600 mmHg 90%
22:00 +12°C° 0.8 mm 1 mps 600 mmHg 91%
23:00 +12°C° 0 mm 1 mps 599 mmHg 90%

12 August, Wednesday

Time Temperature Precipitation Wind Pressure Humidity
00:00 +11°C° 0 mm 1 mps 599 mmHg 89%
01:00 +11°C° 0 mm 1 mps 599 mmHg 89%
02:00 +10°C° 0 mm 1 mps 598 mmHg 88%
03:00 +10°C° 0 mm 1 mps 598 mmHg 88%
04:00 +10°C° 0 mm 1 mps 598 mmHg 88%
05:00 +11°C° 0 mm 1 mps 599 mmHg 84%
06:00 +13°C° 0 mm 1 mps 599 mmHg 81%
07:00 +13°C° 0 mm 0 mps 600 mmHg 78%
08:00 +15°C° 0.1 mm 0 mps 601 mmHg 69%
09:00 +19°C° 0.1 mm 1 mps 602 mmHg 61%
10:00 +21°C° 0.1 mm 1 mps 602 mmHg 53%
11:00 +22°C° 0.6 mm 1 mps 602 mmHg 52%
12:00 +22°C° 0.6 mm 1 mps 602 mmHg 52%
13:00 +23°C° 0.6 mm 1 mps 603 mmHg 51%
14:00 +22°C° 1.4 mm 1 mps 602 mmHg 57%
15:00 +21°C° 1.4 mm 1 mps 601 mmHg 63%
16:00 +20°C° 1.4 mm 1 mps 601 mmHg 68%
17:00 +18°C° 1.4 mm 1 mps 600 mmHg 74%
18:00 +15°C° 1.4 mm 0 mps 600 mmHg 80%
19:00 +14°C° 1.4 mm 0 mps 599 mmHg 86%
20:00 +13°C° 0.5 mm 0 mps 599 mmHg 87%
21:00 +13°C° 0.5 mm 1 mps 599 mmHg 87%
22:00 +12°C° 0.5 mm 1 mps 599 mmHg 87%
23:00 +12°C° 0 mm 1 mps 599 mmHg 87%

13 August, Thursday

Time Temperature Precipitation Wind Pressure Humidity
00:00 +12°C° 0 mm 1 mps 599 mmHg 86%
01:00 +11°C° 0 mm 1 mps 598 mmHg 86%
02:00 +11°C° 0 mm 1 mps 598 mmHg 86%
03:00 +11°C° 0 mm 1 mps 598 mmHg 86%
04:00 +11°C° 0 mm 1 mps 598 mmHg 85%
05:00 +12°C° 0 mm 1 mps 599 mmHg 82%
06:00 +13°C° 0 mm 1 mps 599 mmHg 79%
07:00 +14°C° 0 mm 1 mps 600 mmHg 77%
08:00 +16°C° 0.3 mm 1 mps 600 mmHg 71%
09:00 +18°C° 0.3 mm 1 mps 601 mmHg 66%
10:00 +19°C° 0.3 mm 1 mps 602 mmHg 61%
11:00 +20°C° 0.7 mm 1 mps 602 mmHg 60%
12:00 +20°C° 0.7 mm 1 mps 601 mmHg 58%
13:00 +20°C° 0.7 mm 1 mps 601 mmHg 56%
14:00 +20°C° 0.7 mm 1 mps 601 mmHg 59%
15:00 +19°C° 0.7 mm 1 mps 601 mmHg 61%
16:00 +18°C° 0.7 mm 2 mps 600 mmHg 64%
17:00 +16°C° 0.7 mm 1 mps 600 mmHg 70%
18:00 +15°C° 0.7 mm 1 mps 599 mmHg 76%
19:00 +13°C° 0.7 mm 0 mps 599 mmHg 82%
20:00 +13°C° 0.1 mm 1 mps 599 mmHg 83%
21:00 +12°C° 0.1 mm 1 mps 598 mmHg 85%
22:00 +11°C° 0.1 mm 1 mps 598 mmHg 86%
23:00 +10°C° 0 mm 1 mps 598 mmHg 88%
Show more